Weather History for LFMI - April, 2014

Change the Weather History Date:

Friday, April 4, 2014

  Actual Average (LFML) Record (LFML)
Temperature  
Mean Temperature 63 °F -  
Max Temperature 70 °F 63 °F 73 °F (1999)
Min Temperature 56 °F 46 °F 41 °F (2008)
Degree Days  
Heating Degree Days 2    
Growing Degree Days 13 (Base 50)    
Moisture  
Dew Point 46 °F    
Average Humidity 50    
Maximum Humidity 72    
Minimum Humidity 32    
Precipitation  
Precipitation 0.00 in - - ()
Sea Level Pressure  
Sea Level Pressure 29.64 in    
Wind  
Wind Speed 14 mph ()    
Max Wind Speed 29 mph    
Max Gust Speed 38 mph    
Visibility 7.1 miles    
Events      
Averages and records for this station are not official NWS values.
T = Trace of Precipitation, MM = Missing Value Source: Averaged Metar Reports

Daily Weather History Graph

Daily Weather History Graph

Search for Another Location

Airport or City:

Trip Planner

Search our weather history database for the weather conditions in past years. The results will help you decide how hot, cold, wet, or windy it might be!

Date:

Astronomy

Apr. 04, 2014 Rise Set
Actual Time 7:17 AM CEST 8:10 PM CEST
Civil Twilight 6:48 AM CEST 8:39 PM CEST
Nautical Twilight 6:13 AM CEST 9:14 PM CEST
Astronomical Twilight 5:37 AM CEST 9:50 PM CEST
Moon 10:14 AM CEST (4/4) 12:20 AM CEST (4/4)
Length of Visible Light 13h 51m
Length of Day
12h 53m
Waxing Crescent, 23% of the Moon is Illuminated
Apr 4
Waxing Crescent
Apr 7
First Quarter
Apr 15
Full
Apr 22
Last Quarter
Apr 29
New

Hourly Weather History & Observations

Time (CEST) Temp. Dew Point Humidity Pressure Visibility Wind Dir Wind Speed Gust Speed Precip Events Conditions
12:00 AM 63 °F 41 °F 32% 29.59 in 34 mi East 17.3 mph - -   Clear
12:00 AM 62.6 °F 41.0 °F 45% 29.56 in 6.2 mi East 17.3 mph - N/A   Unknown
12:30 AM 62.6 °F 41.0 °F 45% 29.56 in 6.2 mi East 16.1 mph - N/A   Unknown
1:00 AM 64 °F 42 °F 33% 29.59 in 12 mi East 17.3 mph - -   Clear
1:00 AM 64.4 °F 41.0 °F 42% 29.56 in 6.2 mi East 17.3 mph - N/A   Unknown
1:30 AM 62.6 °F 42.8 °F 48% 29.56 in 6.2 mi East 16.1 mph - N/A   Unknown
2:00 AM 62 °F 42 °F 36% 29.59 in 34 mi NNE 6.9 mph - -   Clear
2:00 AM 62.6 °F 41.0 °F 45% 29.56 in 6.2 mi NNE 6.9 mph - N/A   Unknown
2:30 AM 60.8 °F 42.8 °F 52% 29.59 in 6.2 mi NNE 8.1 mph - N/A   Unknown
3:00 AM 60 °F 42 °F 41% 29.60 in 34 mi NNE 10.4 mph - -   Clear
3:00 AM 60.8 °F 42.8 °F 52% 29.59 in 6.2 mi NNE 10.4 mph - N/A   Unknown
3:30 AM 59.0 °F 42.8 °F 55% 29.59 in 6.2 mi North 9.2 mph - N/A   Unknown
4:00 AM 60 °F 43 °F 42% 29.60 in 37 mi North 9.2 mph - -   Clear
4:00 AM 59.0 °F 42.8 °F 55% 29.59 in 6.2 mi North 9.2 mph - N/A   Unknown
4:30 AM 59.0 °F 44.6 °F 59% 29.59 in 6.2 mi NNE 8.1 mph - N/A   Unknown
6:00 AM 60 °F 45 °F 46% 29.61 in 31 mi North 9.2 mph - -   Clear
6:00 AM 59.0 °F 44.6 °F 59% 29.59 in 6.2 mi North 9.2 mph - N/A   Unknown
6:30 AM 59.0 °F 44.6 °F 59% 29.62 in 6.2 mi North 9.2 mph - N/A   Unknown
7:00 AM 58 °F 45 °F 51% 29.63 in 31 mi North 6.9 mph - -   Clear
7:00 AM 59.0 °F 44.6 °F 59% 29.62 in 6.2 mi North 6.9 mph - N/A   Unknown
7:30 AM 57.2 °F 44.6 °F 63% 29.62 in 6.2 mi NNW 9.2 mph - N/A   Unknown
8:00 AM 56 °F 46 °F 61% 29.64 in 28 mi WNW 5.8 mph - -   Clear
8:00 AM 57.2 °F 46.4 °F 67% 29.62 in 6.2 mi WNW 5.8 mph - N/A   Unknown
8:30 AM 57.2 °F 48.2 °F 72% 29.62 in 6.2 mi West 6.9 mph - N/A   Unknown
9:00 AM 58 °F 48 °F 61% 29.65 in 28 mi West 6.9 mph - -   Clear
9:00 AM 59.0 °F 48.2 °F 67% 29.62 in 6.2 mi West 6.9 mph - N/A   Unknown
9:30 AM 59.0 °F 46.4 °F 63% 29.62 in 6.2 mi WNW 13.8 mph - N/A   Unknown
10:00 AM 60 °F 47 °F 52% 29.65 in 12 mi WNW 11.5 mph - -   Clear
10:00 AM 59.0 °F 46.4 °F 63% 29.62 in 6.2 mi WNW 11.5 mph - N/A   Unknown
10:30 AM 60.8 °F 48.2 °F 63% 29.62 in 6.2 mi NW 11.5 mph - N/A   Unknown
11:00 AM 63 °F 48 °F 48% 29.65 in 18 mi NNW 16.1 mph - -   Clear
11:00 AM 62.6 °F 48.2 °F 59% 29.62 in 6.2 mi NNW 16.1 mph - N/A   Unknown
11:30 AM 66.2 °F 48.2 °F 52% 29.62 in 6.2 mi NNW 20.7 mph - N/A   Unknown
12:00 PM 65 °F 48 °F 43% 29.64 in 12 mi NNW 24.2 mph - -   Clear
12:00 PM 66.2 °F 48.2 °F 52% 29.62 in 6.2 mi NNW 24.2 mph - N/A   Unknown
12:30 PM 64.4 °F 48.2 °F 56% 29.62 in 6.2 mi NNW 23.0 mph - N/A   Unknown
1:00 PM 65 °F 48 °F 44% 29.65 in 31 mi NNW 20.7 mph - -   Clear
1:00 PM 66.2 °F 48.2 °F 52% 29.65 in 6.2 mi NNW 20.7 mph - N/A   Unknown
1:30 PM 68.0 °F 48.2 °F 49% 29.65 in 6.2 mi NNW 20.7 mph - N/A   Unknown
2:00 PM 70 °F 47 °F 33% 29.65 in 12 mi NNW 25.3 mph - -   Clear
2:00 PM 69.8 °F 48.2 °F 46% 29.62 in 6.2 mi NNW 25.3 mph - N/A   Unknown
2:30 PM 69.8 °F 48.2 °F 46% 29.65 in 6.2 mi NNW 23.0 mph - N/A   Unknown
3:00 PM 69 °F 47 °F 35% 29.65 in 12 mi NNW 23.0 mph - -   Clear
3:00 PM 69.8 °F 48.2 °F 46% 29.62 in 6.2 mi NNW 23.0 mph - N/A   Unknown
3:30 PM 69.8 °F 46.4 °F 43% 29.62 in 6.2 mi NNW 28.8 mph - N/A   Unknown
4:00 PM 68 °F 46 °F 34% 29.64 in 6 mi NNW 27.6 mph - -   Clear
4:00 PM 68.0 °F 46.4 °F 46% 29.62 in 6.2 mi NNW 27.6 mph - N/A   Unknown
4:30 PM 69.8 °F 48.2 °F 46% 29.62 in 6.2 mi NNW 25.3 mph 38.0 mph N/A   Unknown
5:00 PM 69 °F 47 °F 33% 29.64 in 22 mi NNW 23.0 mph - -   Clear
5:00 PM 68.0 °F 46.4 °F 46% 29.62 in 6.2 mi NNW 23.0 mph - N/A   Unknown
5:30 PM 68.0 °F 46.4 °F 46% 29.65 in 6.2 mi NNW 27.6 mph - N/A   Unknown
6:00 PM 69 °F 47 °F 34% 29.66 in 13 mi NNW 27.6 mph - -   Clear
6:00 PM 68.0 °F 46.4 °F 46% 29.65 in 6.2 mi NNW 27.6 mph - N/A   Unknown
6:30 PM 68.0 °F 46.4 °F 46% 29.65 in 6.2 mi NNW 24.2 mph - N/A   Unknown
7:00 PM 67 °F 47 °F 38% 29.67 in 22 mi NNW 21.9 mph - -   Clear
7:00 PM 68.0 °F 46.4 °F 46% 29.65 in 6.2 mi NNW 21.9 mph 33.4 mph N/A   Unknown
7:30 PM 68.0 °F 46.4 °F 46% 29.68 in 6.2 mi NNW 20.7 mph - N/A   Unknown
8:00 PM 67 °F 46 °F 36% 29.70 in 31 mi NNW 17.3 mph - -   Clear
8:00 PM 66.2 °F 46.4 °F 49% 29.68 in 6.2 mi NNW 17.3 mph - N/A   Unknown
9:00 PM 65 °F 46 °F 39% 29.72 in 37 mi NW 17.3 mph - -   Clear
9:00 PM 64.4 °F 46.4 °F 52% 29.71 in 6.2 mi NW 17.3 mph - N/A   Unknown
9:30 PM 62.6 °F 46.4 °F 55% 29.71 in 6.2 mi WNW 15.0 mph - N/A   Unknown
10:00 PM 60 °F 47 °F 53% 29.74 in 37 mi WNW 13.8 mph - -   Clear
10:00 PM 60.8 °F 48.2 °F 63% 29.74 in 6.2 mi WNW 13.8 mph - N/A   Unknown
10:30 PM 60.8 °F 46.4 °F 59% 29.74 in 6.2 mi NW 19.6 mph - N/A   Unknown
11:00 PM 59 °F 47 °F 54% 29.75 in 37 mi NW 17.3 mph - -   Clear
11:00 PM 59.0 °F 46.4 °F 63% 29.74 in 6.2 mi NW 17.3 mph - N/A   Unknown
11:30 PM 59.0 °F 46.4 °F 63% 29.74 in 6.2 mi NW 13.8 mph - N/A   Unknown